Regional Weather Roundup
Issued by NWS

Home | Current Version | Previous Version | Text Only | Print | Product List | Glossary Off
Versions: 1 2 3 4 5 6 7 8 9 10 11 12 13 14 15 16 17 18 19 20 21 22 23 24 25 26 27 28 29 30 31 32 33 34 35 36 37 38 39 40 41 42 43 44 45 46 47 48 49 50

000
ASUS43 KLSX 161457
RWRMO

WEATHER SUMMARY FOR MISSOURI
NATIONAL WEATHER SERVICE SPRINGFIELD MO
900 AM CST SAT DEC 16 2017

NOTE: "FAIR" INDICATES FEW OR NO CLOUDS BELOW 12,000 FEET WITH NO
       SIGNIFICANT WEATHER AND/OR OBSTRUCTIONS TO VISIBILITY.
       CURRENT SKY AND/OR WEATHER CONDITIONS ARE NOT AVAILABLE FOR
       CHILLICOTHE AND FARMINGTON.

MOZ001>031-035>038-043-044-053-054-161600-
...NORTHERN AND WESTERN MISSOURI...

CITY           SKY/WX    TMP DP  RH WIND       PRES   REMARKS
KANSAS CTY INT MOSUNNY   40  25  55 SW13      29.88R
LEE`S SUMMIT   SUNNY     39  26  59 S12       29.90R
ST JOSEPH      SUNNY     39  28  64 SW9       29.86R
CHILLICOTHE      N/A     38  25  59 S9        29.89R

$$
MOZ066>068-077>081-088>096-101>105-161600-
...SOUTHWEST MISSOURI...

CITY           SKY/WX    TMP DP  RH WIND       PRES   REMARKS
SPRINGFIELD    SUNNY     40  26  57 S10       30.02S
JOPLIN         SUNNY     45  26  47 S18G29    30.02R
BRANSON        MOSUNNY   45  23  42 SW7G17    30.08R

$$
MOZ032>034-039>042-045>050-055>058-069>072-161600-
...CENTRAL MISSOURI...

CITY           SKY/WX    TMP DP  RH WIND       PRES   REMARKS
COLUMBIA       NOT AVBL
JEFFERSON CITY SUNNY     41  25  53 S3        29.99R
ROLLA          SUNNY     39  26  59 S18       30.00R WCI  30
SEDALIA        SUNNY     44  26  49 SW21G30   29.95R
WARRENSBURG    SUNNY     39  27  60 S15G22    29.94R

$$
MOZ051-052-059>065-161600-
...EAST CENTRAL MISSOURI...

CITY           SKY/WX    TMP DP  RH WIND       PRES   REMARKS
ST LOUIS INTL  MOSUNNY   42  26  53 SW16      30.00R

$$
MOZ072>076-082>087-097>100-106>115-161600-
...SOUTH CENTRAL AND SOUTHEAST MISSOURI...

CITY           SKY/WX    TMP DP  RH WIND       PRES   REMARKS
CAPE GIRARDEAU SUNNY     35  29  78 SW10      30.15R WCI  27
POPLAR BLUFF   SUNNY     35  31  85 S8        30.16S WCI  29
WEST PLAINS    CLOUDY    40  27  59 SW7       30.09S

$$



USA.gov is the U.S. government's official web portal to all federal, state and local government web resources and services.